Temperature
19 17 17 17 18 18 18 18 18 18 19 19 18 17 17 18 17 17 17 18 18 19 19 19 19 19 19 19 18 18 18 18 17 17 17 17 16 16 16 16 15 15 15 15
17 18 18 18 18 18 18 18 18 18 19 19 17 17 17 17 17 17 17 17 18 19 19 19 19 19 19 19 18 18 18 18 17 17 17 17 16 16 16 15 15 15 15 15
18 18 19 19 19 18 18 18 18 18 18 18 18 17 17 16 17 17 17 17 18 18 19 19 19 19 19 18 18 18 18 18 17 17 17 16 16 16 15 15 15 15 15 15
18 18 19 19 19 18 18 19 19 18 17 16 17 16 16 15 16 16 16 17 18 18 19 19 19 19 19 18 18 18 18 17 17 17 17 16 16 16 16 15 15 15 15 15
18 19 19 19 19 19 18 18 18 18 17 16 16 16 15 15 15 15 15 17 18 18 18 19 19 19 19 18 18 18 17 17 17 17 17 16 16 16 15 15 15 15 14 14
18 18 19 19 19 19 18 17 16 15 15 15 15 15 15 14 15 15 15 16 17 18 18 18 18 18 18 18 18 18 17 17 17 16 16 16 16 16 15 15 15 14 14 14
17 18 18 19 19 18 17 16 15 16 14 15 15 15 15 15 15 15 15 16 17 17 17 18 18 18 18 18 17 17 17 17 16 16 16 16 16 15 15 15 15 14 14 14
16 17 18 18 18 18 17 16 15 16 15 14 15 14 15 15 15 16 16 16 16 16 17 17 17 17 18 17 17 17 17 16 16 16 16 16 15 15 15 15 15 14 14 14
16 16 18 18 18 17 17 15 15 14 14 14 14 14 15 15 15 15 15 15 15 16 16 16 17 17 17 17 17 17 16 16 16 16 15 15 15 15 15 15 14 14 14 14
16 16 17 17 18 17 16 14 13 14 14 14 15 14 14 15 15 14 14 14 15 16 16 16 16 16 16 16 16 16 16 16 16 15 15 15 15 15 15 14 14 14 14 14
16 15 16 16 16 16 16 15 13 12 13 13 14 14 15 14 14 13 13 14 15 15 16 16 16 16 16 16 16 15 15 15 15 15 15 15 15 15 14 14 14 14 14 13
14 13 14 15 16 16 16 15 14 14 13 12 12 13 15 14 13 13 14 14 15 15 15 15 15 15 15 15 15 15 15 15 15 14 14 14 14 14 14 14 14 13 13 13
14 13 13 14 15 15 15 15 14 13 12 11 12 14 14 13 13 14 14 14 14 15 15 15 15 15 15 15 15 15 14 14 14 14 14 14 14 14 14 13 13 13 13 13
14 12 13 14 14 14 15 15 14 13 12 12 12 13 13 13 13 13 14 14 14 14 14 14 14 14 14 14 14 14 14 14 14 14 14 14 13 13 13 13 13 13 13 13
13 13 13 13 14 14 14 14 14 13 13 13 13 13 13 13 13 13 14 14 14 14 14 14 14 14 14 14 14 14 14 13 13 13 13 13 13 13 13 13 13 13 12 12
11 12 13 13 14 13 13 13 13 13 13 13 13 12 12 13 13 13 13 13 13 14 14 14 14 14 14 14 14 14 13 13 13 13 13 13 13 12 12 12 12 12 12 12
10 11 12 12 13 13 13 13 13 13 13 13 12 12 12 12 12 12 13 13 13 13 13 13 13 13 13 13 13 13 13 13 12 12 12 12 12 12 12 11 12 12 12 12
10 10 9 10 12 13 13 13 13 13 12 12 12 12 11 12 12 13 13 13 13 13 13 13 13 13 13 13 13 13 13 12 12 12 11 11 11 11 11 11 11 11 11 11
9 10 9 10 11 11 12 12 12 12 12 11 11 11 12 12 12 12 13 13 13 13 13 13 13 13 13 13 12 12 12 12 11 11 11 11 11 11 11 11 11 10 10 10
9 9 9 9 11 11 12 13 12 12 12 12 11 11 11 11 10 10 12 12 12 12 12 12 12 12 12 12 12 12 12 11 11 11 11 11 11 10 10 10 10 10 10 10
10 9 9 9 10 10 11 12 12 12 12 12 12 11 11 11 11 12 12 12 12 12 12 12 12 12 12 12 12 11 11 11 11 11 10 10 10 10 10 10 10 10 9 9
9 9 8 8 10 11 12 11 11 11 12 13 12 12 12 12 12 12 12 12 12 11 11 11 11 11 11 11 11 11 11 11 10 10 10 10 10 10 9 9 9 9 9 9
8 9 8 9 10 11 12 12 13 13 13 13 13 12 12 11 11 11 11 11 11 11 11 11 11 10 10 10 10 10 10 10 10 9 9 9 9 9 9 9 9 9 9 8
8 8 8 8 9 10 12 12 13 13 13 13 13 12 12 11 11 11 11 10 10 10 10 10 10 10 10 10 10 9 9 9 9 9 9 9 9 9 9 9 9 8 8 8
8 7 7 8 8 10 11 12 12 12 12 12 12 12 11 11 11 10 10 10 10 9 9 9 9 9 9 9 9 9 9 9 8 8 8 8 8 8 8 8 8 8 8 8
7 7 8 9 10 9 11 12 12 12 12 12 11 11 11 10 10 10 10 9 9 9 9 9 9 9 8 8 8 8 8 8 8 8 8 8 8 8 8 8 8 8 7 7
Wind_Speed
3 4 3 6 6 5 4 3 4 5 3 1 4 5 6 3 2 4 4 5 6 8 5 4 4 5 6 6 7 7 7 6 6 4 4 3 2 1 1 1 3 4 4 5
5 2 5 4 4 4 3 3 4 5 2 1 3 5 5 2 2 4 5 6 7 6 4 3 4 4 6 7 7 7 7 7 7 5 4 3 3 2 1 1 1 2 3 4
4 4 1 3 3 3 3 5 5 4 3 2 1 5 3 2 1 1 2 4 4 6 7 6 5 6 5 7 9 8 8 7 7 6 4 4 3 2 1 0 0 1 3 4
3 3 1 2 2 4 4 5 5 3 0 3 0 3 5 4 3 3 3 3 4 4 4 4 5 5 6 7 7 7 7 7 6 6 6 7 5 4 4 3 2 1 2 3
3 1 1 2 4 5 4 1 2 2 3 1 1 2 6 2 3 5 4 4 4 3 3 4 5 6 6 5 6 6 6 6 6 6 7 7 5 4 2 2 2 1 1 2
3 2 2 3 1 2 2 4 4 4 3 2 3 3 5 3 5 4 4 3 3 2 1 2 2 2 2 3 4 5 6 6 6 6 6 7 7 6 4 3 3 2 1 1
5 4 2 1 1 3 5 5 3 3 2 4 2 3 5 5 4 4 4 3 2 1 1 1 1 1 2 3 4 5 6 5 6 6 7 7 7 7 7 5 5 3 2 2
1 5 3 0 3 3 2 6 5 4 4 4 2 4 5 4 3 1 1 1 2 2 1 1 0 1 2 3 4 5 5 5 5 6 6 6 6 6 5 6 5 5 4 4
3 5 4 1 1 5 4 3 4 5 2 2 4 4 5 2 3 3 3 3 2 1 1 1 1 0 1 2 3 5 6 4 4 5 5 5 5 6 6 5 5 4 4 3
4 3 4 4 3 3 4 6 4 4 3 3 4 4 4 3 3 2 2 2 2 2 1 2 2 1 1 2 2 3 4 5 4 4 4 4 5 5 5 4 5 5 4 4
2 2 5 3 1 2 2 3 4 3 3 4 3 6 4 5 4 3 3 2 2 2 1 1 1 1 1 2 2 2 3 3 3 3 3 3 3 4 4 4 5 5 4 4
1 3 2 5 4 2 3 4 5 3 3 3 3 6 4 3 3 3 3 3 2 1 1 1 2 2 2 1 1 1 1 2 2 3 3 3 3 3 3 3 4 4 4 4
2 3 2 6 5 3 2 1 3 4 3 3 4 6 3 2 2 2 2 2 2 2 2 2 2 1 1 1 0 1 1 2 2 2 3 2 2 3 4 4 3 3 4 4
3 3 5 6 6 3 3 3 2 3 3 4 7 8 6 5 4 4 3 2 1 2 2 2 2 2 1 1 1 1 1 2 1 2 2 3 3 4 4 4 3 3 4 4
3 2 4 6 6 4 5 6 4 5 6 7 7 7 8 7 6 4 3 2 1 2 2 3 2 2 2 1 2 2 2 2 2 2 3 4 4 3 3 3 4 4 4 4
2 2 1 4 4 3 6 7 6 6 6 6 6 8 6 4 2 2 3 2 2 3 3 3 3 2 3 3 3 3 3 2 2 3 3 3 3 2 3 3 3 3 3 3
1 3 1 4 4 3 6 6 6 5 4 6 7 7 3 2 2 3 3 3 4 4 3 3 3 4 4 4 4 4 4 2 3 4 3 2 2 3 3 3 3 3 4 3
5 3 2 1 1 6 6 3 4 4 4 5 4 3 3 3 3 3 3 2 3 4 4 4 4 4 4 4 3 3 2 2 3 3 3 3 3 3 2 3 4 4 3 4
5 6 3 2 3 6 5 3 3 3 4 4 4 3 2 1 2 3 3 2 4 4 4 4 4 4 3 3 2 2 1 2 3 3 4 4 3 3 3 3 4 3 3 3
3 4 4 3 3 5 6 2 1 2 4 3 3 3 2 1 1 5 4 3 4 4 3 3 2 2 2 2 1 1 2 2 3 5 5 4 4 4 4 4 4 3 3 4
2 2 3 4 5 7 5 2 3 3 6 3 4 4 3 4 5 4 3 3 3 3 3 2 2 2 2 2 1 1 2 4 5 4 3 3 3 4 3 3 3 3 3 3
5 4 4 4 4 7 3 3 5 6 3 3 4 4 4 4 3 2 2 2 2 3 3 2 2 3 3 1 1 1 3 4 3 1 2 2 2 2 2 2 3 3 3 3
6 6 5 7 7 5 4 5 4 2 3 4 4 4 3 3 3 3 2 2 2 2 3 3 2 3 3 2 1 2 4 2 1 1 1 2 2 2 2 3 3 3 3 3
4 2 3 4 7 6 6 4 3 3 4 4 3 3 3 4 3 3 2 2 2 2 2 2 2 2 3 3 2 2 3 2 1 1 2 1 1 1 2 2 3 3 3 3
6 4 3 6 7 6 6 5 4 3 2 2 2 3 4 3 3 3 3 3 3 3 2 2 2 2 4 3 3 3 2 1 1 2 2 1 1 2 1 1 2 3 4 5
5 7 7 8 8 6 7 6 4 3 4 4 3 3 2 3 4 3 3 3 3 3 2 2 2 3 3 3 3 4 3 1 1 1 1 1 1 1 1 1 1 2 2 3
Wind_Direction
56 84 180 206 194 180 177 190 242 259 256 199 236 262 278 284 225 236 237 231 234 241 247 211 198 187 176 174 173 173 170 172 162 160 159 155 165 173 151 151 164 162 154 147
47 265 232 196 181 167 181 219 261 291 305 201 257 277 286 291 233 226 231 240 239 244 249 214 189 181 189 187 185 183 182 178 178 177 171 161 154 159 167 143 131 157 155 150
181 250 182 140 155 176 216 207 224 252 333 10 342 318 309 303 331 309 263 247 247 236 228 217 198 196 194 197 194 191 189 185 185 172 142 117 93 76 82 100 176 168 161 154
240 266 146 148 207 176 242 230 208 217 255 292 157 283 293 292 319 331 299 278 260 255 234 216 202 202 203 205 195 189 185 183 182 170 166 163 167 183 202 189 184 174 150 151
261 239 166 215 234 183 219 247 187 204 181 276 337 213 289 309 295 293 290 284 278 259 223 212 207 208 206 197 187 184 177 179 177 176 177 175 175 185 165 145 158 183 191 162
263 270 208 222 239 168 152 67 54 52 85 264 251 197 282 258 239 266 283 293 293 296 236 204 196 185 187 173 173 173 173 181 177 177 179 182 182 174 161 170 183 196 213 217
330 323 315 157 63 28 74 81 26 356 359 257 251 191 251 260 242 232 244 266 294 325 66 109 116 149 175 169 174 175 172 183 183 182 188 193 191 181 183 190 193 192 202 223
299 297 294 323 172 188 165 142 162 210 230 273 305 231 257 277 303 290 247 338 9 25 55 68 141 175 185 182 176 172 175 183 186 189 196 196 192 189 197 197 196 199 207 216
191 262 300 297 203 143 136 162 172 148 189 260 272 281 303 332 360 14 23 39 6 348 32 36 3 52 170 170 181 179 174 175 183 193 194 193 194 197 203 204 202 205 208 208
169 256 298 304 60 38 137 145 102 129 175 255 283 268 251 273 287 327 353 353 314 333 356 12 360 324 185 169 175 165 165 171 175 175 188 198 203 207 205 195 200 208 208 198
121 189 312 360 114 222 87 98 107 124 158 176 256 270 233 224 238 242 267 289 307 307 315 328 345 354 76 107 134 150 151 147 152 172 183 191 198 199 192 200 208 205 203 194
96 122 279 280 271 238 175 169 152 167 231 194 210 262 288 235 230 223 262 281 299 286 301 329 4 33 58 75 104 127 148 157 178 184 180 193 199 185 185 202 208 198 200 199
119 99 14 341 339 5 57 139 154 144 143 184 209 259 307 343 318 274 265 285 307 314 328 339 358 11 10 42 101 166 181 197 195 176 179 188 189 188 202 212 206 198 202 201
104 128 182 215 240 260 289 278 207 151 180 227 232 252 288 308 297 290 285 278 275 282 284 306 306 300 292 275 237 220 233 227 210 189 189 204 213 210 209 208 199 198 199 200
94 181 227 244 256 248 258 265 240 213 208 217 246 244 256 254 253 256 264 279 296 295 287 273 279 290 290 276 258 243 238 232 215 201 208 221 224 219 209 202 202 200 198 204
74 167 245 283 270 250 277 276 245 231 224 230 256 266 263 256 245 265 263 249 259 270 272 272 277 290 281 259 247 240 240 230 203 205 225 231 222 220 215 213 205 199 203 205
136 138 152 270 289 318 276 254 225 220 220 202 230 249 276 282 251 241 248 254 260 265 265 260 265 263 261 255 241 236 233 224 208 216 229 229 217 218 223 218 201 204 210 205
161 149 161 237 339 245 251 267 211 208 238 224 220 240 244 250 262 266 266 251 275 278 271 269 267 267 264 258 248 238 223 210 213 221 230 227 218 220 219 208 210 214 209 206
178 161 156 162 224 270 286 253 191 201 263 228 216 245 277 303 0 316 285 276 263 264 270 265 261 262 263 257 239 208 213 215 216 225 229 228 218 219 220 220 217 207 200 209
99 136 145 161 210 246 250 247 194 113 278 251 205 232 251 81 332 278 289 299 300 302 297 292 292 296 288 276 225 181 227 232 240 238 233 226 214 212 219 226 215 204 201 210
92 101 170 196 228 260 257 243 120 169 249 248 213 221 205 209 227 255 278 293 299 306 312 322 340 331 297 291 165 199 241 254 256 252 242 234 220 213 213 217 208 196 195 197
182 179 192 177 213 251 239 146 183 218 246 241 224 224 222 236 253 266 273 293 309 314 320 327 343 336 327 325 171 227 252 264 275 272 247 240 229 219 214 200 206 197 190 192
202 198 195 199 221 256 237 222 241 205 228 244 233 243 224 243 260 269 278 287 295 291 303 319 333 340 337 327 232 242 274 289 295 273 257 255 245 223 201 199 199 198 194 196
250 184 183 248 264 265 264 265 264 235 239 247 235 223 211 237 247 253 264 277 286 288 288 304 323 325 320 318 309 284 295 290 247 231 245 240 221 224 227 217 201 196 204 210
223 181 212 252 270 289 277 255 249 257 264 270 262 235 218 215 248 250 254 252 250 265 277 279 277 284 297 310 312 310 305 296 278 259 251 247 235 214 227 243 229 217 218 213
212 196 202 237 237 224 254 261 245 239 248 239 233 247 252 227 234 241 250 255 250 260 275 280 282 283 292 302 305 307 303 264 225 270 267 250 238 225 217 233 311 309 247 240
Height
1498 1504 1509 1507 1507 1508 1511 1515 1516 1512 1506 1508 1510 1510 1506 1504 1505 1505 1505 1506 1506 1506 1508 1509 1511 1513 1515 1517 1518 1520 1522 1524 1526 1527 1528 1529 1530 1531 1532 1533 1533 1534 1534 1535
1504 1506 1502 1501 1503 1506 1510 1514 1515 1510 1505 1507 1510 1509 1505 1504 1504 1503 1503 1503 1503 1504 1505 1507 1508 1510 1512 1514 1516 1518 1520 1522 1524 1525 1527 1528 1529 1530 1531 1532 1533 1533 1534 1534
1505 1503 1499 1501 1504 1508 1510 1512 1512 1512 1508 1507 1510 1512 1507 1503 1502 1502 1502 1502 1502 1502 1502 1504 1506 1508 1509 1511 1513 1515 1517 1520 1522 1524 1526 1527 1528 1529 1530 1530 1531 1532 1533 1533
1503 1500 1499 1502 1504 1506 1511 1504 1506 1508 1515 1520 1515 1525 1512 1507 1503 1502 1501 1500 1499 1499 1500 1501 1503 1505 1506 1508 1510 1513 1515 1517 1519 1522 1523 1524 1525 1526 1527 1528 1529 1531 1531 1532
1502 1499 1500 1503 1502 1502 1504 1501 1504 1507 1513 1520 1519 1524 1517 1508 1507 1503 1500 1498 1497 1497 1498 1499 1501 1502 1504 1506 1508 1510 1513 1515 1517 1519 1521 1522 1523 1524 1526 1527 1528 1529 1530 1530
1500 1497 1498 1498 1498 1499 1501 1505 1509 1514 1519 1528 1522 1525 1521 1511 1506 1502 1499 1497 1496 1496 1496 1497 1498 1500 1502 1504 1506 1508 1510 1512 1514 1516 1518 1519 1520 1522 1523 1524 1526 1527 1528 1529
1504 1499 1496 1496 1499 1500 1503 1515 1528 1528 1534 1531 1519 1522 1517 1504 1500 1499 1497 1496 1496 1495 1495 1495 1496 1498 1500 1501 1503 1505 1507 1509 1511 1513 1515 1517 1518 1519 1520 1521 1523 1524 1525 1526
1513 1512 1499 1496 1499 1503 1506 1512 1528 1534 1536 1530 1520 1521 1511 1500 1497 1497 1496 1496 1495 1495 1495 1495 1496 1496 1498 1499 1501 1502 1504 1506 1508 1510 1512 1514 1515 1517 1518 1519 1520 1521 1522 1524
1513 1511 1497 1495 1495 1498 1506 1512 1512 1524 1526 1530 1524 1517 1507 1498 1497 1497 1496 1495 1495 1494 1494 1494 1495 1496 1497 1498 1499 1500 1502 1504 1505 1507 1509 1511 1512 1514 1515 1517 1518 1519 1520 1521
1506 1511 1501 1497 1496 1498 1501 1507 1518 1524 1531 1533 1524 1520 1515 1504 1500 1498 1497 1496 1495 1494 1494 1494 1494 1494 1495 1496 1497 1498 1500 1501 1503 1504 1506 1508 1509 1511 1512 1514 1515 1516 1517 1518
1504 1511 1508 1502 1503 1504 1506 1510 1515 1523 1524 1532 1531 1523 1503 1501 1498 1498 1497 1496 1496 1495 1494 1494 1494 1494 1495 1495 1496 1497 1498 1499 1501 1502 1504 1505 1506 1508 1509 1510 1512 1513 1514 1515
1506 1513 1515 1508 1500 1499 1500 1505 1512 1521 1524 1526 1528 1521 1498 1497 1496 1496 1496 1496 1495 1495 1494 1494 1494 1494 1494 1494 1495 1496 1497 1498 1499 1500 1501 1502 1504 1505 1505 1507 1508 1509 1511 1512
1506 1513 1520 1516 1511 1504 1503 1504 1507 1513 1520 1526 1526 1516 1497 1495 1495 1495 1495 1495 1495 1494 1494 1493 1493 1493 1493 1493 1493 1494 1495 1496 1497 1498 1499 1500 1500 1501 1502 1503 1505 1506 1507 1508
1502 1512 1518 1520 1514 1508 1507 1505 1506 1510 1519 1521 1517 1509 1500 1498 1496 1495 1494 1494 1494 1494 1494 1493 1492 1492 1491 1492 1492 1493 1493 1495 1495 1496 1496 1497 1497 1498 1499 1500 1501 1502 1504 1505
1503 1511 1509 1508 1505 1505 1505 1504 1504 1506 1508 1512 1507 1505 1499 1496 1494 1493 1493 1492 1492 1492 1492 1492 1491 1491 1491 1490 1491 1491 1491 1492 1493 1493 1494 1494 1495 1495 1496 1497 1498 1499 1500 1501
1504 1509 1508 1507 1504 1504 1504 1501 1500 1501 1502 1503 1502 1501 1494 1492 1492 1492 1491 1491 1491 1490 1490 1490 1490 1489 1489 1489 1488 1489 1489 1489 1490 1490 1491 1491 1491 1492 1493 1493 1494 1496 1496 1497
1507 1509 1513 1513 1506 1504 1506 1499 1497 1497 1496 1497 1500 1497 1493 1492 1491 1490 1490 1489 1489 1489 1489 1489 1488 1488 1487 1487 1486 1486 1486 1487 1486 1487 1487 1488 1488 1489 1489 1490 1491 1491 1492 1493
1505 1510 1515 1514 1509 1512 1502 1493 1492 1492 1492 1491 1491 1491 1491 1490 1489 1489 1488 1488 1487 1487 1487 1486 1486 1486 1485 1484 1484 1484 1484 1483 1483 1483 1483 1484 1485 1485 1486 1486 1487 1488 1489 1489
1500 1506 1514 1516 1513 1507 1498 1492 1491 1492 1492 1489 1489 1489 1489 1489 1488 1488 1487 1486 1486 1486 1485 1485 1484 1483 1482 1482 1481 1481 1480 1480 1480 1479 1480 1480 1481 1482 1482 1482 1483 1484 1485 1485
1500 1502 1511 1514 1510 1509 1496 1488 1487 1490 1493 1486 1486 1486 1487 1487 1491 1488 1485 1484 1484 1483 1483 1482 1481 1480 1479 1479 1478 1478 1477 1476 1476 1476 1477 1477 1477 1478 1478 1478 1479 1480 1481 1481
1504 1507 1510 1512 1509 1501 1489 1487 1488 1497 1492 1484 1483 1483 1484 1484 1485 1484 1483 1482 1481 1481 1480 1479 1478 1477 1477 1476 1475 1475 1474 1473 1473 1473 1473 1473 1473 1473 1474 1475 1475 1476 1477 1477
1502 1505 1508 1509 1508 1501 1485 1486 1488 1486 1482 1481 1481 1481 1481 1481 1482 1481 1481 1479 1479 1478 1478 1477 1476 1474 1474 1473 1473 1472 1471 1471 1470 1470 1470 1470 1470 1470 1471 1471 1471 1472 1472 1473
1497 1496 1496 1497 1494 1485 1482 1481 1481 1480 1480 1479 1479 1479 1479 1479 1479 1478 1478 1477 1477 1476 1475 1475 1474 1473 1472 1471 1471 1469 1469 1468 1467 1467 1467 1467 1467 1467 1467 1467 1467 1468 1468 1469
1491 1490 1491 1491 1485 1481 1479 1479 1478 1478 1478 1477 1477 1477 1476 1476 1475 1475 1475 1475 1474 1474 1473 1473 1472 1471 1470 1469 1468 1467 1466 1465 1465 1464 1463 1463 1463 1463 1463 1463 1463 1464 1464 1464
1486 1487 1488 1486 1481 1478 1475 1475 1475 1475 1475 1475 1474 1474 1473 1473 1473 1473 1472 1472 1472 1471 1471 1470 1469 1468 1467 1466 1465 1464 1463 1462 1461 1461 1460 1460 1459 1459 1459 1460 1460 1460 1460 1461
1480 1481 1483 1480 1475 1475 1472 1472 1473 1472 1472 1472 1471 1471 1471 1471 1470 1470 1469 1469 1468 1468 1467 1467 1466 1465 1464 1463 1462 1461 1460 1459 1458 1457 1457 1456 1456 1456 1456 1456 1456 1456 1457 1458